Tracking 29892 objects as of 21-Nov-2024
HD Live streaming from Space Station
objects crossing your sky now

DELTA 1 R/B(2)

Track DELTA 1 R/B(2) now!
10-day predictions


NORAD ID: 12679
Int'l Code: 1981-070E
Perigee: 496.0 km
Apogee: 23,216.9 km
Inclination: 90.7 °
Period: 408.2 minutes
Semi major axis: 18227 km
RCS: 1.6792 m2 (large)
Launch date: August 3, 1981
Source: United States (US)
Launch site: AIR FORCE WESTERN TEST RANGE (AFWTR)

Note: This is a ROCKET BODY
Your satellite tracking list
Your tracking list is empty




NASA's NSSDC Master Catalog

Two Line Element Set (TLE):
1 12679U 81070E   24324.50510596  .00000164  00000-0  57162-3 0  9992
2 12679  90.7382  43.5233 6232624  46.4699 350.8531  3.52788917554963
Source of the keplerian elements: AFSPC